Branson, MO

4:25 AM CDT on June 25, 2017 (GMT -0500)
Branson

Weather History for KBBG - March, 2013

Change the Weather History Date:

Saturday, March 23, 2013

  Actual Average (KHRO) Record (KHRO)
Temperature  
Mean Temperature 34 °F -  
Max Temperature 37 °F 60 °F 93 °F (1929)
Min Temperature 32 °F 38 °F 20 °F (1968)
Degree Days  
Heating Degree Days 30    
Moisture  
Dew Point 34 °F    
Average Humidity 100    
Maximum Humidity 100    
Minimum Humidity 100    
Precipitation  
Precipitation 0.00 in - - ()
Sea Level Pressure  
Sea Level Pressure 29.86 in    
Wind  
Wind Speed 5 mph (ENE)    
Max Wind Speed 13 mph    
Max Gust Speed -    
Visibility 1 miles    
Events Fog , Rain    
Averages and records for this station are not official NWS values.
T = Trace of Precipitation, MM = Missing Value Source: NWS Daily Summary

Daily Weather History Graph

Daily Weather History Graph

Search for Another Location

Airport or City:

Trip Planner

Search our weather history database for the weather conditions in past years. The results will help you decide how hot, cold, wet, or windy it might be!

Date:

Astronomy

Mar. 23, 2013 Rise Set
Actual Time 7:11 AM CDT 7:27 PM CDT
Civil Twilight 6:45 AM CDT 7:53 PM CDT
Nautical Twilight 6:15 AM CDT 8:23 PM CDT
Astronomical Twilight 5:45 AM CDT 8:54 PM CDT
Moon 3:59 PM CDT (3/23) 4:42 AM CDT (3/23)
Length of Visible Light 13h 07m
Length of Day
12h 15m
Waxing Gibbous, 85% of the Moon is Illuminated
Mar 23
Waxing Gibbous
Mar 27
Full
Apr 2
Last Quarter
Apr 10
New
Apr 18
First Quarter

Hourly Weather History & Observations

Time (CDT) Temp. Windchill Dew Point Humidity Pressure Visibility Wind Dir Wind Speed Gust Speed Precip Events Conditions
12:15 AM 33.8 °F 29.6 °F 33.8 °F 100% 29.96 in 0.2 mi ESE 4.6 mph - N/A Fog Fog
12:35 AM 32.0 °F 27.5 °F 32.0 °F 100% 29.94 in 0.2 mi East 4.6 mph - N/A Fog Fog
12:55 AM 32.0 °F 27.5 °F 32.0 °F 100% 29.94 in 0.2 mi East 4.6 mph - N/A Fog Fog
1:15 AM 32.0 °F 26.4 °F 32.0 °F 100% 29.92 in 0.2 mi East 5.8 mph - N/A Rain Light Rain
1:35 AM 32.0 °F 26.4 °F 32.0 °F 100% 29.92 in 0.2 mi East 5.8 mph - N/A Fog Fog
1:55 AM 32.0 °F 27.5 °F 32.0 °F 100% 29.91 in 0.2 mi East 4.6 mph - N/A Fog Fog
2:15 AM 32.0 °F 28.7 °F 32.0 °F 100% 29.92 in 0.2 mi ENE 3.5 mph - N/A Fog Fog
2:35 AM 32.0 °F 28.7 °F 32.0 °F 100% 29.91 in 0.2 mi NE 3.5 mph - N/A Fog Fog
2:55 AM 32.0 °F 27.5 °F 32.0 °F 100% 29.90 in 0.2 mi ENE 4.6 mph - N/A Fog Fog
3:15 AM 32.0 °F 27.5 °F 32.0 °F 100% 29.91 in 1.8 mi ENE 4.6 mph - N/A   Overcast
3:35 AM 32.0 °F 28.7 °F 32.0 °F 100% 29.90 in 1.2 mi NE 3.5 mph - N/A   Overcast
3:55 AM 32.0 °F 28.7 °F 32.0 °F 100% 29.90 in 0.8 mi East 3.5 mph - N/A   Overcast
4:15 AM 32.0 °F - 32.0 °F 100% 29.91 in 1.0 mi Calm Calm - N/A   Overcast
4:35 AM 32.0 °F - 32.0 °F 100% 29.91 in 0.5 mi Calm Calm - N/A Fog Fog
4:55 AM 32.0 °F - 32.0 °F 100% 29.91 in 0.8 mi Calm Calm - N/A   Overcast
5:15 AM 32.0 °F 25.6 °F 32.0 °F 100% 29.90 in 1.0 mi East 6.9 mph - N/A   Overcast
5:35 AM 32.0 °F 25.6 °F 32.0 °F 100% 29.90 in 1.0 mi East 6.9 mph - N/A   Overcast
5:55 AM 32.0 °F 24.8 °F 32.0 °F 100% 29.90 in 1.0 mi East 8.1 mph - N/A   Overcast
6:15 AM 32.0 °F 25.6 °F 32.0 °F 100% 29.91 in 0.5 mi East 6.9 mph - N/A Fog Fog
6:35 AM 32.0 °F 24.2 °F 32.0 °F 100% 29.91 in 0.8 mi East 9.2 mph - N/A   Overcast
6:50 AM 32.0 °F 22.5 °F 32.0 °F 100% 29.91 in 0.8 mi East 12.7 mph - N/A   Overcast
8:45 AM 32.0 °F 25.6 °F 32.0 °F 100% 29.93 in 0.8 mi East 6.9 mph - N/A   Overcast
9:45 AM 32.0 °F 26.4 °F 32.0 °F 100% 29.92 in 0.8 mi East 5.8 mph - N/A   Overcast
10:45 AM 32.0 °F 25.6 °F 32.0 °F 100% 29.92 in 1.0 mi ENE 6.9 mph - N/A   Overcast
11:55 AM 35.6 °F 29.9 °F 35.6 °F 100% 29.90 in 3.0 mi NE 6.9 mph - N/A   Overcast
1:47 PM 35.6 °F 30.7 °F 35.6 °F 100% 29.87 in 1.0 mi East 5.8 mph - N/A Rain Light Rain
2:52 PM 35.6 °F 30.7 °F 35.6 °F 100% 29.84 in 0.8 mi ENE 5.8 mph - N/A Rain Light Rain
3:39 PM 37.4 °F 32.1 °F 37.4 °F 100% 29.82 in 1.0 mi East 6.9 mph - N/A Rain Light Rain
3:55 PM 37.4 °F 31.4 °F 37.4 °F 100% 29.81 in 0.8 mi East 8.1 mph - N/A Rain Light Rain
4:45 PM 37.4 °F 32.8 °F 37.4 °F 100% 29.79 in 1.0 mi East 5.8 mph - N/A   Overcast
5:53 PM 37.4 °F 32.1 °F 37.4 °F 100% 29.76 in 1.0 mi East 6.9 mph - N/A   Overcast
6:55 PM 37.4 °F 34.9 °F 37.4 °F 100% 29.77 in 0.8 mi NE 3.5 mph - N/A   Overcast
7:51 PM 37.4 °F 34.9 °F 37.4 °F 100% 29.76 in 2.0 mi ENE 3.5 mph - N/A   Overcast
8:47 PM 37.4 °F 33.8 °F 37.4 °F 100% 29.76 in 1.5 mi East 4.6 mph - N/A   Overcast
9:15 PM 37.4 °F 32.1 °F 37.4 °F 100% 29.77 in 1.2 mi ESE 6.9 mph - N/A   Overcast
9:35 PM 37.4 °F 33.8 °F 37.4 °F 100% 29.78 in 0.8 mi East 4.6 mph - N/A Rain Light Rain
9:55 PM 37.4 °F - 37.4 °F 100% 29.79 in 0.8 mi Calm Calm - N/A Rain Light Rain
10:15 PM 37.4 °F 34.9 °F 37.4 °F 100% 29.77 in 0.8 mi ENE 3.5 mph - N/A   Overcast
10:35 PM 37.4 °F - 37.4 °F 100% 29.75 in 0.2 mi Calm Calm - N/A Fog Fog
10:55 PM 37.4 °F - 37.4 °F 100% 29.76 in 1.0 mi Calm Calm - N/A Rain Light Rain
11:15 PM 37.4 °F - 37.4 °F 100% 29.75 in 0.5 mi Calm Calm - N/A Rain Light Rain
11:35 PM 37.4 °F 34.9 °F 37.4 °F 100% 29.73 in 0.2 mi North 3.5 mph - N/A Rain Light Rain
11:55 PM 37.4 °F 34.9 °F 37.4 °F 100% 29.72 in 0.2 mi NNE 3.5 mph - N/A Rain Light Rain